Time,TemperatureF,DewpointF,PressureIn,WindDirection,WindDirectionDegrees,WindSpeedMPH,WindSpeedGustMPH,Humidity,HourlyPrecipIn,Conditions,Clouds,dailyrainin,SolarRadiationWatts/m^2,SoftwareType,DateUTC
2013-06-23 00:02:00,59.4,51.8,29.97,WSW,243,3.0,7.0,76,0.00,,,0.00,0.0,meteohub,2013-06-23 07:02:00,
2013-06-23 00:07:00,59.2,51.6,29.97,SW,235,1.0,7.0,76,0.00,,,0.00,0.0,meteohub,2013-06-23 07:07:00,
2013-06-23 00:12:00,58.8,51.6,29.97,West,263,4.0,8.0,77,0.00,,,0.00,0.0,meteohub,2013-06-23 07:12:00,
2013-06-23 00:17:00,58.6,51.8,29.97,SW,229,0.0,9.0,78,0.00,,,0.00,0.0,meteohub,2013-06-23 07:17:00,
2013-06-23 00:22:00,58.5,52.0,29.97,SW,225,2.0,9.0,79,0.00,,,0.00,0.0,meteohub,2013-06-23 07:22:00,
2013-06-23 00:27:00,58.3,51.8,29.97,WNW,296,0.0,9.0,79,0.00,,,0.00,0.0,meteohub,2013-06-23 07:27:00,
2013-06-23 00:32:00,57.9,51.4,29.97,WNW,294,1.0,8.0,79,0.00,,,0.00,0.0,meteohub,2013-06-23 07:32:00,
2013-06-23 00:37:00,57.9,51.8,29.97,SW,215,3.0,6.0,80,0.00,,,0.00,0.0,meteohub,2013-06-23 07:37:00,
2013-06-23 00:42:00,57.7,51.6,29.97,West,275,2.0,6.0,80,0.00,,,0.00,0.0,meteohub,2013-06-23 07:42:00,
2013-06-23 00:47:00,57.6,51.8,29.97,SW,236,0.0,6.0,81,0.00,,,0.00,0.0,meteohub,2013-06-23 07:47:00,
2013-06-23 00:52:00,57.4,52.0,29.97,WSW,254,4.0,7.0,82,0.00,,,0.00,0.0,meteohub,2013-06-23 07:52:00,
2013-06-23 00:57:00,57.0,52.0,29.97,NW,307,4.0,8.0,83,0.00,,,0.00,0.0,meteohub,2013-06-23 07:57:00,
2013-06-23 01:02:00,56.8,52.0,29.97,WSW,242,2.0,9.0,84,0.00,,,0.00,0.0,meteohub,2013-06-23 08:02:00,
2013-06-23 01:07:00,56.7,51.8,29.97,SW,219,2.0,9.0,84,0.00,,,0.00,0.0,meteohub,2013-06-23 08:07:00,
2013-06-23 01:12:00,56.5,52.0,29.97,West,267,4.0,9.0,85,0.00,,,0.00,0.0,meteohub,2013-06-23 08:12:00,
2013-06-23 01:17:00,56.5,52.0,29.96,SSW,213,6.0,11.0,85,0.00,,,0.00,0.0,meteohub,2013-06-23 08:17:00,
2013-06-23 01:22:00,56.5,52.3,29.96,NW,305,3.0,11.0,86,0.00,,,0.00,0.0,meteohub,2013-06-23 08:22:00,
2013-06-23 01:27:00,56.3,52.2,29.96,West,260,6.0,13.0,86,0.00,,,0.00,0.0,meteohub,2013-06-23 08:27:00,
2013-06-23 01:32:00,56.3,52.2,29.96,West,260,6.0,13.0,86,0.00,,,0.00,0.0,meteohub,2013-06-23 08:32:00,
2013-06-23 01:37:00,56.1,52.0,29.96,WNW,301,4.0,11.0,86,0.00,,,0.00,0.0,meteohub,2013-06-23 08:37:00,
2013-06-23 01:42:00,56.1,52.3,29.96,West,269,3.0,11.0,87,0.00,,,0.00,0.0,meteohub,2013-06-23 08:42:00,
2013-06-23 01:47:00,56.1,52.3,29.96,SW,230,2.0,11.0,87,0.00,,,0.00,0.0,meteohub,2013-06-23 08:47:00,
2013-06-23 01:52:00,56.1,52.3,29.96,SSW,202,2.0,9.0,87,0.00,,,0.00,0.0,meteohub,2013-06-23 08:52:00,
2013-06-23 01:57:00,56.1,52.3,29.96,WNW,282,3.0,9.0,87,0.00,,,0.00,0.0,meteohub,2013-06-23 08:57:00,
2013-06-23 02:02:00,56.1,52.3,29.96,West,264,0.0,10.0,87,0.00,,,0.00,0.0,meteohub,2013-06-23 09:02:00,
2013-06-23 02:07:00,56.1,52.3,29.96,West,275,4.0,10.0,87,0.00,,,0.00,0.0,meteohub,2013-06-23 09:07:00,
2013-06-23 02:12:00,55.9,52.2,29.96,WSW,258,5.0,10.0,87,0.00,,,0.00,0.0,meteohub,2013-06-23 09:12:00,
2013-06-23 02:17:00,55.9,52.2,29.96,West,265,0.0,10.0,87,0.00,,,0.00,0.0,meteohub,2013-06-23 09:17:00,
2013-06-23 02:22:00,55.6,51.8,29.96,WSW,254,0.0,10.0,87,0.00,,,0.00,0.0,meteohub,2013-06-23 09:22:00,
2013-06-23 02:27:00,55.2,51.8,29.97,WSW,248,4.0,10.0,88,0.00,,,0.00,0.0,meteohub,2013-06-23 09:27:00,
2013-06-23 02:32:00,55.0,51.6,29.96,WSW,251,4.0,10.0,88,0.00,,,0.00,0.0,meteohub,2013-06-23 09:32:00,
2013-06-23 02:37:00,55.0,51.6,29.96,West,274,5.0,10.0,88,0.00,,,0.00,0.0,meteohub,2013-06-23 09:37:00,
2013-06-23 02:42:00,55.0,51.6,29.96,SW,231,2.0,11.0,88,0.00,,,0.00,0.0,meteohub,2013-06-23 09:42:00,
2013-06-23 02:47:00,55.0,51.8,29.96,West,259,4.0,11.0,89,0.00,,,0.00,0.0,meteohub,2013-06-23 09:47:00,
2013-06-23 02:52:00,55.0,51.8,29.96,WSW,244,7.0,11.0,89,0.00,,,0.00,0.0,meteohub,2013-06-23 09:52:00,
2013-06-23 02:57:00,54.9,51.6,29.96,West,268,4.0,11.0,89,0.00,,,0.00,0.0,meteohub,2013-06-23 09:57:00,
2013-06-23 03:02:00,54.9,51.6,29.96,West,265,4.0,10.0,89,0.00,,,0.00,0.0,meteohub,2013-06-23 10:02:00,
2013-06-23 03:08:00,54.7,51.8,29.96,West,275,5.0,11.0,90,0.00,,,0.00,0.0,meteohub,2013-06-23 10:08:00,
2013-06-23 03:13:00,54.7,51.8,29.96,WNW,295,8.0,11.0,90,0.00,,,0.00,0.0,meteohub,2013-06-23 10:13:00,
2013-06-23 03:18:00,54.7,51.8,29.96,West,275,4.0,11.0,90,0.00,,,0.00,0.0,meteohub,2013-06-23 10:18:00,
2013-06-23 03:23:00,54.9,52.0,29.96,WSW,238,4.0,10.0,90,0.00,,,0.00,0.0,meteohub,2013-06-23 10:23:00,
2013-06-23 03:28:00,55.0,52.2,29.96,WNW,290,6.0,10.0,90,0.00,,,0.00,0.0,meteohub,2013-06-23 10:28:00,
2013-06-23 03:33:00,55.0,52.2,29.96,West,261,6.0,11.0,90,0.00,,,0.00,0.0,meteohub,2013-06-23 10:33:00,
2013-06-23 03:38:00,55.0,52.5,29.96,West,274,4.0,12.0,91,0.00,,,0.00,0.0,meteohub,2013-06-23 10:38:00,
2013-06-23 03:43:00,55.2,52.7,29.96,NW,307,2.0,12.0,91,0.00,,,0.00,0.0,meteohub,2013-06-23 10:43:00,
2013-06-23 03:49:00,55.2,52.3,29.95,West,272,3.0,10.0,90,0.00,,,0.00,0.0,meteohub,2013-06-23 10:49:00,
2013-06-23 03:54:00,55.2,52.3,29.95,WNW,303,2.0,10.0,90,0.00,,,0.00,0.0,meteohub,2013-06-23 10:54:00,
2013-06-23 03:59:00,55.4,52.5,29.95,SW,235,2.0,10.0,90,0.00,,,0.00,0.0,meteohub,2013-06-23 10:59:00,
2013-06-23 04:04:00,55.6,52.7,29.95,NW,306,4.0,8.0,90,0.00,,,0.00,0.0,meteohub,2013-06-23 11:04:00,
2013-06-23 04:09:00,55.8,52.9,29.95,WSW,241,8.0,8.0,90,0.00,,,0.00,0.0,meteohub,2013-06-23 11:09:00,
2013-06-23 04:14:00,55.8,52.9,29.96,NNW,328,2.0,7.0,90,0.00,,,0.00,0.0,meteohub,2013-06-23 11:14:00,
2013-06-23 04:19:00,55.8,52.9,29.96,West,265,7.0,11.0,90,0.00,,,0.00,0.0,meteohub,2013-06-23 11:19:00,
2013-06-23 04:25:00,55.8,52.9,29.96,WNW,298,4.0,11.0,90,0.00,,,0.00,0.0,meteohub,2013-06-23 11:25:00,
2013-06-23 04:30:00,55.6,52.7,29.96,SW,234,8.0,11.0,90,0.00,,,0.00,0.0,meteohub,2013-06-23 11:30:00,
2013-06-23 04:35:00,55.4,52.5,29.96,West,259,5.0,11.0,90,0.00,,,0.00,0.0,meteohub,2013-06-23 11:35:00,
2013-06-23 04:40:00,55.2,52.3,29.96,WSW,243,4.0,11.0,90,0.00,,,0.00,0.0,meteohub,2013-06-23 11:40:00,
2013-06-23 04:45:00,55.0,52.2,29.96,WSW,251,5.0,10.0,90,0.00,,,0.00,0.0,meteohub,2013-06-23 11:45:00,
2013-06-23 04:50:00,55.0,52.5,29.96,West,281,2.0,10.0,91,0.00,,,0.00,0.0,meteohub,2013-06-23 11:50:00,
2013-06-23 04:55:00,55.0,52.5,29.96,West,273,0.0,10.0,91,0.00,,,0.00,0.0,meteohub,2013-06-23 11:55:00,
2013-06-23 05:00:00,55.0,52.5,29.96,West,274,4.0,10.0,91,0.00,,,0.00,0.0,meteohub,2013-06-23 12:00:00,
2013-06-23 05:05:00,55.2,52.7,29.96,West,259,5.0,10.0,91,0.00,,,0.00,0.0,meteohub,2013-06-23 12:05:00,
2013-06-23 05:10:00,55.0,52.5,29.96,West,271,1.0,11.0,91,0.00,,,0.00,0.0,meteohub,2013-06-23 12:10:00,
2013-06-23 05:16:00,55.0,52.5,29.96,West,271,4.0,11.0,91,0.00,,,0.00,0.0,meteohub,2013-06-23 12:16:00,
2013-06-23 05:21:00,55.0,52.5,29.96,WSW,250,4.0,11.0,91,0.00,,,0.00,0.0,meteohub,2013-06-23 12:21:00,
2013-06-23 05:26:00,55.2,52.9,29.96,West,268,3.0,9.0,92,0.00,,,0.00,0.0,meteohub,2013-06-23 12:26:00,
2013-06-23 05:31:00,55.6,53.2,29.96,SSW,193,3.0,8.0,92,0.00,,,0.00,0.0,meteohub,2013-06-23 12:31:00,
2013-06-23 05:36:00,55.6,53.2,29.96,WSW,248,8.0,8.0,92,0.00,,,0.00,0.0,meteohub,2013-06-23 12:36:00,
2013-06-23 05:41:00,55.8,53.4,29.96,West,273,2.0,10.0,92,0.00,,,0.00,0.0,meteohub,2013-06-23 12:41:00,
2013-06-23 05:46:00,55.9,53.4,29.96,SW,222,2.0,10.0,91,0.00,,,0.00,0.0,meteohub,2013-06-23 12:46:00,
2013-06-23 05:52:00,56.1,53.6,29.96,West,281,3.0,10.0,91,0.00,,,0.00,5.0,meteohub,2013-06-23 12:52:00,
2013-06-23 05:57:00,56.1,53.6,29.96,West,262,3.0,6.0,91,0.00,,,0.00,9.0,meteohub,2013-06-23 12:57:00,
2013-06-23 06:02:00,56.1,53.6,29.96,West,269,3.0,6.0,91,0.00,,,0.00,14.0,meteohub,2013-06-23 13:02:00,
2013-06-23 06:07:00,56.3,53.4,29.96,West,279,3.0,12.0,90,0.00,,,0.00,16.0,meteohub,2013-06-23 13:07:00,
2013-06-23 06:12:00,56.5,53.6,29.96,West,277,6.0,12.0,90,0.00,,,0.00,19.0,meteohub,2013-06-23 13:12:00,
2013-06-23 06:17:00,56.5,53.6,29.97,WSW,253,6.0,12.0,90,0.00,,,0.00,11.0,meteohub,2013-06-23 13:17:00,
2013-06-23 06:22:00,56.5,53.6,29.97,WSW,240,5.0,11.0,90,0.00,,,0.00,14.0,meteohub,2013-06-23 13:22:00,
2013-06-23 06:27:00,56.7,53.8,29.97,WSW,248,6.0,12.0,90,0.00,,,0.00,16.0,meteohub,2013-06-23 13:27:00,
2013-06-23 06:33:00,56.7,53.8,29.97,WSW,248,8.0,12.0,90,0.00,,,0.00,21.0,meteohub,2013-06-23 13:33:00,
2013-06-23 06:38:00,56.8,54.0,29.97,WSW,246,5.0,11.0,90,0.00,,,0.00,18.0,meteohub,2013-06-23 13:38:00,
2013-06-23 06:43:00,56.8,54.0,29.97,West,272,6.0,10.0,90,0.00,,,0.00,18.0,meteohub,2013-06-23 13:43:00,
2013-06-23 06:48:00,57.0,53.8,29.96,SW,228,3.0,10.0,89,0.00,,,0.00,21.0,meteohub,2013-06-23 13:48:00,
2013-06-23 06:53:00,57.2,54.0,29.96,WNW,288,1.0,7.0,89,0.00,,,0.00,28.0,meteohub,2013-06-23 13:53:00,
2013-06-23 06:58:00,57.4,54.1,29.96,West,259,4.0,7.0,89,0.00,,,0.00,39.0,meteohub,2013-06-23 13:58:00,
2013-06-23 07:04:00,57.6,54.0,29.97,West,275,5.0,8.0,88,0.00,,,0.00,37.0,meteohub,2013-06-23 14:04:00,
2013-06-23 07:09:00,57.6,54.0,29.98,West,259,5.0,8.0,88,0.00,,,0.00,32.0,meteohub,2013-06-23 14:09:00,
2013-06-23 07:14:00,57.6,54.0,29.97,West,263,3.0,9.0,88,0.00,,,0.00,32.0,meteohub,2013-06-23 14:14:00,
2013-06-23 07:19:00,57.4,54.1,29.97,WNW,283,3.0,9.0,89,0.00,,,0.00,54.0,meteohub,2013-06-23 14:19:00,
2013-06-23 07:24:00,57.6,54.3,29.97,WSW,257,3.0,9.0,89,0.00,,,0.00,79.0,meteohub,2013-06-23 14:24:00,
2013-06-23 07:29:00,57.7,54.5,29.98,SW,222,5.0,9.0,89,0.00,,,0.00,90.0,meteohub,2013-06-23 14:29:00,
2013-06-23 07:34:00,57.7,54.5,29.98,WSW,246,6.0,8.0,89,0.00,,,0.00,42.0,meteohub,2013-06-23 14:34:00,
2013-06-23 07:40:00,57.7,54.5,29.98,SW,217,2.0,9.0,89,0.00,,,0.00,47.0,meteohub,2013-06-23 14:40:00,
2013-06-23 07:45:00,57.7,54.5,29.97,WNW,284,0.0,9.0,89,0.00,,,0.00,62.0,meteohub,2013-06-23 14:45:00,
2013-06-23 07:50:00,57.9,54.7,29.98,West,275,3.0,9.0,89,0.00,,,0.00,42.0,meteohub,2013-06-23 14:50:00,
2013-06-23 07:55:00,57.7,54.5,29.98,West,276,5.0,6.0,89,0.00,,,0.00,53.0,meteohub,2013-06-23 14:55:00,
2013-06-23 08:00:00,57.7,54.5,29.98,WSW,241,2.0,7.0,89,0.00,,,0.00,39.0,meteohub,2013-06-23 15:00:00,
2013-06-23 08:05:00,57.7,54.9,29.97,SW,224,1.0,7.0,90,0.00,,,0.00,56.0,meteohub,2013-06-23 15:05:00,
2013-06-23 08:10:00,57.7,54.9,29.97,WSW,246,2.0,7.0,90,0.00,,,0.00,98.0,meteohub,2013-06-23 15:10:00,
2013-06-23 08:16:00,57.9,55.0,29.98,SW,232,1.0,5.0,90,0.00,,,0.00,81.0,meteohub,2013-06-23 15:16:00,
2013-06-23 08:21:00,57.9,54.7,29.98,WSW,243,0.0,6.0,89,0.00,,,0.00,63.0,meteohub,2013-06-23 15:21:00,
2013-06-23 08:26:00,57.9,54.7,29.98,WSW,258,1.0,6.0,89,0.00,,,0.00,74.0,meteohub,2013-06-23 15:26:00,
2013-06-23 08:31:00,58.3,55.0,29.98,WSW,256,0.0,8.0,89,0.00,,,0.00,134.0,meteohub,2013-06-23 15:31:00,
2013-06-23 08:36:00,58.6,55.4,29.98,WSW,247,2.0,8.0,89,0.00,,,0.00,209.0,meteohub,2013-06-23 15:36:00,
2013-06-23 08:42:00,59.4,55.8,29.98,South,182,1.0,8.0,88,0.00,,,0.00,239.0,meteohub,2013-06-23 15:42:00,
2013-06-23 08:47:00,59.7,55.6,29.98,WSW,249,7.0,9.0,86,0.00,,,0.00,186.0,meteohub,2013-06-23 15:47:00,
2013-06-23 08:52:00,59.7,55.6,29.98,WSW,255,6.0,12.0,86,0.00,,,0.00,128.0,meteohub,2013-06-23 15:52:00,
2013-06-23 08:57:00,59.5,55.4,29.98,WSW,249,4.0,13.0,86,0.00,,,0.00,113.0,meteohub,2013-06-23 15:57:00,
2013-06-23 08:59:00,59.4,55.2,29.98,West,263,5.0,13.0,86,0.00,,,0.00,90.0,meteohub,2013-06-23 15:59:00,
2013-06-23 09:02:00,59.4,55.2,29.99,WSW,257,6.0,13.0,86,0.00,,,0.00,90.0,meteohub,2013-06-23 16:02:00,
2013-06-23 09:12:00,59.2,55.4,29.99,WSW,242,5.0,12.0,87,0.00,,,0.00,113.0,meteohub,2013-06-23 16:12:00,
2013-06-23 09:17:00,59.2,55.4,29.99,WSW,238,5.0,8.0,87,0.00,,,0.00,114.0,meteohub,2013-06-23 16:17:00,
2013-06-23 09:22:00,59.0,55.2,29.99,WSW,258,6.0,10.0,87,0.00,,,0.00,69.0,meteohub,2013-06-23 16:22:00,
2013-06-23 09:27:00,59.0,55.2,29.99,SW,232,5.0,10.0,87,0.00,,,0.00,77.0,meteohub,2013-06-23 16:27:00,
2013-06-23 09:32:00,59.0,55.2,29.99,WSW,242,6.0,10.0,87,0.00,,,0.00,90.0,meteohub,2013-06-23 16:32:00,
2013-06-23 09:37:00,58.8,55.0,29.99,WSW,250,7.0,15.0,87,0.00,,,0.00,91.0,meteohub,2013-06-23 16:37:00,
2013-06-23 09:42:00,58.6,54.9,29.99,WSW,248,6.0,16.0,87,0.00,,,0.00,109.0,meteohub,2013-06-23 16:42:00,
2013-06-23 09:47:00,58.6,55.0,29.99,WSW,247,8.0,16.0,88,0.00,,,0.00,107.0,meteohub,2013-06-23 16:47:00,
2013-06-23 09:53:00,58.8,55.0,29.99,WSW,257,5.0,16.0,87,0.00,,,0.00,88.0,meteohub,2013-06-23 16:53:00,
2013-06-23 09:57:00,59.0,55.2,29.99,SW,232,10.0,13.0,87,0.00,,,0.00,105.0,meteohub,2013-06-23 16:57:00,
2013-06-23 09:58:00,59.0,55.2,29.99,WSW,247,7.0,13.0,87,0.00,,,0.00,113.0,meteohub,2013-06-23 16:58:00,
2013-06-23 09:59:00,59.0,55.2,29.99,West,263,8.0,13.0,87,0.00,,,0.00,121.0,meteohub,2013-06-23 16:59:00,
2013-06-23 10:05:00,59.2,55.4,29.99,WSW,251,5.0,13.0,87,0.00,,,0.00,137.0,meteohub,2013-06-23 17:05:00,
2013-06-23 10:06:00,59.2,55.4,29.99,WNW,289,5.0,12.0,87,0.00,,,0.00,123.0,meteohub,2013-06-23 17:06:00,
2013-06-23 10:12:00,59.4,55.4,29.99,WSW,247,3.0,13.0,87,0.00,,,0.00,156.0,meteohub,2013-06-23 17:12:00,
2013-06-23 10:17:00,59.4,55.2,29.99,WSW,248,6.0,13.0,86,0.00,,,0.00,199.0,meteohub,2013-06-23 17:17:00,
2013-06-23 10:22:00,59.7,55.6,29.99,WSW,240,8.0,13.0,86,0.00,,,0.00,253.0,meteohub,2013-06-23 17:22:00,
2013-06-23 10:27:00,59.7,55.6,29.99,WSW,254,5.0,14.0,86,0.00,,,0.00,107.0,meteohub,2013-06-23 17:27:00,
2013-06-23 10:32:00,59.7,55.8,29.99,WNW,303,2.0,14.0,87,0.00,,,0.00,325.0,meteohub,2013-06-23 17:32:00,
2013-06-23 10:37:00,60.3,56.1,29.99,SW,222,3.0,14.0,86,0.00,,,0.00,218.0,meteohub,2013-06-23 17:37:00,
2013-06-23 10:42:00,60.4,55.9,29.99,South,191,4.0,10.0,85,0.00,,,0.00,206.0,meteohub,2013-06-23 17:42:00,
2013-06-23 10:47:00,60.6,56.1,29.99,WSW,244,9.0,10.0,85,0.00,,,0.00,172.0,meteohub,2013-06-23 17:47:00,
2013-06-23 10:52:00,60.8,56.3,29.99,SW,232,8.0,12.0,85,0.00,,,0.00,281.0,meteohub,2013-06-23 17:52:00,
2013-06-23 10:57:00,61.2,56.3,29.99,West,274,6.0,12.0,84,0.00,,,0.00,292.0,meteohub,2013-06-23 17:57:00,
2013-06-23 11:02:00,61.7,56.8,29.99,West,273,7.0,12.0,84,0.00,,,0.00,306.0,meteohub,2013-06-23 18:02:00,
2013-06-23 11:07:00,61.9,56.7,29.99,West,261,5.0,13.0,83,0.00,,,0.00,260.0,meteohub,2013-06-23 18:07:00,
2013-06-23 11:12:00,61.7,56.5,29.99,West,280,4.0,17.0,83,0.00,,,0.00,221.0,meteohub,2013-06-23 18:12:00,
2013-06-23 11:17:00,61.7,56.5,30.00,SSW,206,6.0,17.0,83,0.00,,,0.00,169.0,meteohub,2013-06-23 18:17:00,
2013-06-23 11:22:00,61.3,56.1,29.99,WSW,242,7.0,17.0,83,0.00,,,0.00,179.0,meteohub,2013-06-23 18:22:00,
2013-06-23 11:27:00,61.0,56.1,29.99,West,267,5.0,13.0,84,0.00,,,0.00,229.0,meteohub,2013-06-23 18:27:00,
2013-06-23 11:32:00,61.2,56.7,29.99,West,265,6.0,13.0,85,0.00,,,0.00,200.0,meteohub,2013-06-23 18:32:00,
2013-06-23 11:37:00,61.2,56.3,29.99,WNW,298,4.0,15.0,84,0.00,,,0.00,243.0,meteohub,2013-06-23 18:37:00,
2013-06-23 11:43:00,61.5,57.0,29.99,WSW,253,6.0,15.0,85,0.00,,,0.00,272.0,meteohub,2013-06-23 18:43:00,
2013-06-23 11:48:00,61.9,56.7,29.99,West,271,5.0,12.0,83,0.00,,,0.00,167.0,meteohub,2013-06-23 18:48:00,
2013-06-23 11:53:00,61.9,56.7,29.99,WSW,238,9.0,14.0,83,0.00,,,0.00,142.0,meteohub,2013-06-23 18:53:00,
2013-06-23 11:58:00,61.5,56.7,29.99,SSE,167,6.0,14.0,84,0.00,,,0.00,134.0,meteohub,2013-06-23 18:58:00,
2013-06-23 12:03:00,61.5,56.7,29.99,WSW,238,9.0,14.0,84,0.00,,,0.00,244.0,meteohub,2013-06-23 19:03:00,
2013-06-23 12:08:00,61.5,57.0,30.00,SW,230,9.0,13.0,85,0.00,,,0.00,186.0,meteohub,2013-06-23 19:08:00,
2013-06-23 12:13:00,61.5,57.0,30.00,SSW,200,4.0,13.0,85,0.00,,,0.00,218.0,meteohub,2013-06-23 19:13:00,
2013-06-23 12:18:00,61.7,56.8,29.99,WSW,244,1.0,13.0,84,0.00,,,0.00,230.0,meteohub,2013-06-23 19:18:00,
2013-06-23 12:23:00,62.2,57.7,30.00,WSW,249,5.0,13.0,85,0.00,,,0.00,278.0,meteohub,2013-06-23 19:23:00,
2013-06-23 12:28:00,62.8,57.6,30.00,WSW,240,6.0,10.0,83,0.00,,,0.00,167.0,meteohub,2013-06-23 19:28:00,
2013-06-23 12:33:00,62.8,57.6,30.00,SW,234,2.0,11.0,83,0.00,,,0.00,160.0,meteohub,2013-06-23 19:33:00,
2013-06-23 12:39:00,63.0,57.7,30.00,SW,216,0.0,12.0,83,0.00,,,0.00,253.0,meteohub,2013-06-23 19:39:00,
2013-06-23 12:44:00,63.1,57.6,30.00,WNW,290,2.0,12.0,82,0.00,,,0.00,227.0,meteohub,2013-06-23 19:44:00,
2013-06-23 12:49:00,63.5,57.9,30.00,West,261,2.0,12.0,82,0.00,,,0.00,292.0,meteohub,2013-06-23 19:49:00,
2013-06-23 12:54:00,63.5,57.6,30.00,NW,315,4.0,10.0,81,0.00,,,0.00,267.0,meteohub,2013-06-23 19:54:00,
2013-06-23 12:59:00,63.9,57.9,30.00,WSW,250,11.0,15.0,81,0.00,,,0.00,264.0,meteohub,2013-06-23 19:59:00,
2013-06-23 13:04:00,63.7,57.7,29.99,West,273,7.0,15.0,81,0.00,,,0.00,295.0,meteohub,2013-06-23 20:04:00,
2013-06-23 13:09:00,63.7,57.7,29.99,West,270,5.0,17.0,81,0.00,,,0.00,197.0,meteohub,2013-06-23 20:09:00,
2013-06-23 13:14:00,63.3,57.7,29.99,SW,223,2.0,17.0,82,0.00,,,0.00,128.0,meteohub,2013-06-23 20:14:00,
2013-06-23 13:20:00,63.1,57.6,29.99,WSW,246,3.0,17.0,82,0.00,,,0.00,169.0,meteohub,2013-06-23 20:20:00,
2013-06-23 13:25:00,63.1,57.9,29.99,WSW,250,4.0,11.0,83,0.00,,,0.00,149.0,meteohub,2013-06-23 20:25:00,
2013-06-23 13:30:00,63.1,57.9,29.99,WSW,257,4.0,8.0,83,0.00,,,0.00,120.0,meteohub,2013-06-23 20:30:00,
2013-06-23 13:35:00,63.3,57.7,29.99,WSW,257,5.0,7.0,82,0.00,,,0.00,91.0,meteohub,2013-06-23 20:35:00,
2013-06-23 13:40:00,63.1,57.9,29.99,West,261,5.0,7.0,83,0.00,,,0.00,100.0,meteohub,2013-06-23 20:40:00,
2013-06-23 13:45:00,63.0,57.7,29.99,WSW,247,3.0,8.0,83,0.00,,,0.00,207.0,meteohub,2013-06-23 20:45:00,
2013-06-23 13:50:00,63.0,58.1,29.99,SW,223,3.0,10.0,84,0.00,,,0.00,135.0,meteohub,2013-06-23 20:50:00,
2013-06-23 13:55:00,63.0,58.1,29.99,WSW,237,5.0,12.0,84,0.00,,,0.00,134.0,meteohub,2013-06-23 20:55:00,
2013-06-23 14:00:00,63.0,58.1,29.99,WSW,237,7.0,12.0,84,0.00,,,0.00,246.0,meteohub,2013-06-23 21:00:00,
2013-06-23 14:05:00,63.3,58.5,29.98,SW,222,1.0,12.0,84,0.00,,,0.00,294.0,meteohub,2013-06-23 21:05:00,
2013-06-23 14:10:00,63.9,59.0,29.98,West,266,2.0,9.0,84,0.00,,,0.00,343.0,meteohub,2013-06-23 21:10:00,
2013-06-23 14:16:00,64.2,58.6,29.98,SW,232,7.0,9.0,82,0.00,,,0.00,225.0,meteohub,2013-06-23 21:16:00,
2013-06-23 14:21:00,64.2,58.6,29.98,West,270,4.0,8.0,82,0.00,,,0.00,213.0,meteohub,2013-06-23 21:21:00,
2013-06-23 14:26:00,63.9,58.3,29.98,SW,223,4.0,13.0,82,0.00,,,0.00,134.0,meteohub,2013-06-23 21:26:00,
2013-06-23 14:31:00,63.7,58.5,29.98,SSW,213,5.0,13.0,83,0.00,,,0.00,114.0,meteohub,2013-06-23 21:31:00,
2013-06-23 14:36:00,63.5,58.3,29.98,WNW,286,3.0,13.0,83,0.00,,,0.00,102.0,meteohub,2013-06-23 21:36:00,
2013-06-23 14:41:00,63.1,58.3,29.98,West,271,5.0,13.0,84,0.00,,,0.00,130.0,meteohub,2013-06-23 21:41:00,
2013-06-23 14:46:00,63.1,58.3,29.98,South,178,4.0,13.0,84,0.00,,,0.00,109.0,meteohub,2013-06-23 21:46:00,
2013-06-23 14:51:00,63.1,58.6,29.98,WSW,239,5.0,13.0,85,0.00,,,0.00,141.0,meteohub,2013-06-23 21:51:00,
2013-06-23 14:57:00,63.1,58.6,29.98,WSW,239,6.0,12.0,85,0.00,,,0.00,146.0,meteohub,2013-06-23 21:57:00,
2013-06-23 15:02:00,63.3,58.8,29.98,WSW,257,3.0,11.0,85,0.00,,,0.00,118.0,meteohub,2013-06-23 22:02:00,
2013-06-23 15:07:00,63.1,58.6,29.98,WSW,254,5.0,11.0,85,0.00,,,0.00,128.0,meteohub,2013-06-23 22:07:00,
2013-06-23 15:12:00,63.1,58.6,29.98,West,259,5.0,11.0,85,0.00,,,0.00,130.0,meteohub,2013-06-23 22:12:00,
2013-06-23 15:17:00,63.1,58.6,29.98,SW,231,9.0,12.0,85,0.00,,,0.00,149.0,meteohub,2013-06-23 22:17:00,
2013-06-23 15:22:00,63.0,58.5,29.98,West,265,6.0,13.0,85,0.00,,,0.00,132.0,meteohub,2013-06-23 22:22:00,
2013-06-23 15:27:00,63.1,58.8,29.98,SW,228,7.0,14.0,86,0.00,,,0.00,153.0,meteohub,2013-06-23 22:27:00,
2013-06-23 15:32:00,63.3,59.0,29.98,WSW,250,6.0,14.0,86,0.00,,,0.00,144.0,meteohub,2013-06-23 22:32:00,
2013-06-23 15:37:00,63.3,58.8,29.98,West,263,5.0,14.0,85,0.00,,,0.00,123.0,meteohub,2013-06-23 22:37:00,
2013-06-23 15:42:00,63.3,58.8,29.97,WNW,301,3.0,12.0,85,0.00,,,0.00,105.0,meteohub,2013-06-23 22:42:00,
2013-06-23 15:47:00,63.7,59.0,29.97,West,274,1.0,12.0,85,0.00,,,0.00,107.0,meteohub,2013-06-23 22:47:00,
2013-06-23 15:52:00,63.7,59.0,29.97,NNW,327,3.0,12.0,85,0.00,,,0.00,113.0,meteohub,2013-06-23 22:52:00,
2013-06-23 15:57:00,63.7,59.0,29.97,West,275,10.0,10.0,85,0.00,,,0.00,120.0,meteohub,2013-06-23 22:57:00,
2013-06-23 16:02:00,63.7,59.0,29.97,WSW,240,5.0,11.0,85,0.00,,,0.00,151.0,meteohub,2013-06-23 23:02:00,
2013-06-23 16:07:00,64.0,59.4,29.97,West,271,3.0,11.0,85,0.00,,,0.00,197.0,meteohub,2013-06-23 23:07:00,
2013-06-23 16:12:00,64.6,59.7,29.97,WSW,255,5.0,11.0,84,0.00,,,0.00,241.0,meteohub,2013-06-23 23:12:00,
2013-06-23 16:17:00,64.6,59.7,29.97,West,277,7.0,10.0,84,0.00,,,0.00,234.0,meteohub,2013-06-23 23:17:00,
2013-06-23 16:22:00,64.8,59.5,29.97,WSW,254,4.0,12.0,83,0.00,,,0.00,197.0,meteohub,2013-06-23 23:22:00,
2013-06-23 16:27:00,64.8,59.5,29.97,SSW,211,7.0,12.0,83,0.00,,,0.00,179.0,meteohub,2013-06-23 23:27:00,
2013-06-23 16:32:00,64.8,59.5,29.97,SW,234,8.0,12.0,83,0.00,,,0.00,146.0,meteohub,2013-06-23 23:32:00,
2013-06-23 16:37:00,64.8,59.5,29.96,WSW,240,3.0,12.0,83,0.00,,,0.00,118.0,meteohub,2013-06-23 23:37:00,
2013-06-23 16:42:00,64.8,59.5,29.96,West,265,6.0,10.0,83,0.00,,,0.00,160.0,meteohub,2013-06-23 23:42:00,
2013-06-23 16:47:00,64.8,59.5,29.96,WSW,240,5.0,10.0,83,0.00,,,0.00,125.0,meteohub,2013-06-23 23:47:00,
2013-06-23 16:52:00,64.8,59.2,29.96,WSW,239,6.0,10.0,82,0.00,,,0.00,116.0,meteohub,2013-06-23 23:52:00,
2013-06-23 16:57:00,64.8,59.5,29.96,WSW,241,6.0,11.0,83,0.00,,,0.00,155.0,meteohub,2013-06-23 23:57:00,
2013-06-23 17:02:00,64.8,59.5,29.97,West,261,5.0,11.0,83,0.00,,,0.00,162.0,meteohub,2013-06-24 00:02:00,
2013-06-23 17:07:00,64.9,59.4,29.97,WSW,254,6.0,13.0,82,0.00,,,0.00,148.0,meteohub,2013-06-24 00:07:00,
2013-06-23 17:12:00,64.8,59.5,29.97,SW,217,6.0,13.0,83,0.00,,,0.00,148.0,meteohub,2013-06-24 00:12:00,
2013-06-23 17:17:00,64.6,59.4,29.97,SW,218,7.0,13.0,83,0.00,,,0.00,118.0,meteohub,2013-06-24 00:17:00,
2013-06-23 17:22:00,64.6,59.4,29.97,WSW,249,7.0,13.0,83,0.00,,,0.00,107.0,meteohub,2013-06-24 00:22:00,
2013-06-23 17:27:00,64.6,59.4,29.97,WSW,246,5.0,13.0,83,0.00,,,0.00,190.0,meteohub,2013-06-24 00:27:00,
2013-06-23 17:33:00,64.6,59.4,29.97,WNW,290,3.0,13.0,83,0.00,,,0.00,230.0,meteohub,2013-06-24 00:33:00,
2013-06-23 17:38:00,64.8,59.2,29.97,SSW,211,6.0,10.0,82,0.00,,,0.00,149.0,meteohub,2013-06-24 00:38:00,
2013-06-23 17:43:00,64.2,58.6,29.97,SW,228,10.0,10.0,82,0.00,,,0.00,135.0,meteohub,2013-06-24 00:43:00,
2013-06-23 17:48:00,63.9,58.6,29.96,West,261,3.0,12.0,83,0.00,,,0.00,162.0,meteohub,2013-06-24 00:48:00,
2013-06-23 17:53:00,63.9,59.0,29.96,WSW,237,2.0,12.0,84,0.00,,,0.00,227.0,meteohub,2013-06-24 00:53:00,
2013-06-23 17:58:00,64.2,59.0,29.96,SW,234,7.0,11.0,83,0.00,,,0.00,172.0,meteohub,2013-06-24 00:58:00,
2013-06-23 18:03:00,64.2,59.0,29.96,SSW,211,5.0,11.0,83,0.00,,,0.00,146.0,meteohub,2013-06-24 01:03:00,
2013-06-23 18:08:00,64.2,59.0,29.96,WSW,246,7.0,10.0,83,0.00,,,0.00,163.0,meteohub,2013-06-24 01:08:00,
2013-06-23 18:13:00,64.2,59.0,29.96,West,261,1.0,9.0,83,0.00,,,0.00,137.0,meteohub,2013-06-24 01:13:00,
2013-06-23 18:18:00,64.2,59.0,29.96,WSW,250,4.0,9.0,83,0.00,,,0.00,227.0,meteohub,2013-06-24 01:18:00,
2013-06-23 18:23:00,64.6,59.0,29.96,WSW,250,3.0,8.0,82,0.00,,,0.00,144.0,meteohub,2013-06-24 01:23:00,
2013-06-23 18:28:00,64.2,58.3,29.96,WSW,242,4.0,7.0,81,0.00,,,0.00,142.0,meteohub,2013-06-24 01:28:00,
2013-06-23 18:34:00,64.2,58.6,29.96,West,269,5.0,6.0,82,0.00,,,0.00,149.0,meteohub,2013-06-24 01:34:00,
2013-06-23 18:39:00,64.0,58.5,29.96,West,267,2.0,8.0,82,0.00,,,0.00,397.0,meteohub,2013-06-24 01:39:00,
2013-06-23 18:44:00,64.8,59.2,29.96,WSW,244,4.0,8.0,82,0.00,,,0.00,192.0,meteohub,2013-06-24 01:44:00,
2013-06-23 18:49:00,65.1,59.2,29.96,SW,229,6.0,8.0,81,0.00,,,0.00,190.0,meteohub,2013-06-24 01:49:00,
2013-06-23 18:54:00,64.9,58.6,29.96,WSW,244,7.0,9.0,80,0.00,,,0.00,123.0,meteohub,2013-06-24 01:54:00,
2013-06-23 18:59:00,64.6,58.6,29.96,West,265,5.0,9.0,81,0.00,,,0.00,193.0,meteohub,2013-06-24 01:59:00,
2013-06-23 19:04:00,64.8,58.8,29.96,WSW,246,4.0,9.0,81,0.00,,,0.00,223.0,meteohub,2013-06-24 02:04:00,
2013-06-23 19:09:00,65.1,59.2,29.96,West,267,3.0,8.0,81,0.00,,,0.00,315.0,meteohub,2013-06-24 02:09:00,
2013-06-23 19:14:00,65.1,58.5,29.96,SW,232,6.0,8.0,79,0.00,,,0.00,70.0,meteohub,2013-06-24 02:14:00,
2013-06-23 19:19:00,64.8,58.5,29.96,WSW,252,3.0,9.0,80,0.00,,,0.00,30.0,meteohub,2013-06-24 02:19:00,
2013-06-23 19:24:00,64.0,58.1,29.96,WSW,255,2.0,9.0,81,0.00,,,0.00,18.0,meteohub,2013-06-24 02:24:00,
2013-06-23 19:30:00,63.7,58.1,29.96,WSW,252,4.0,9.0,82,0.00,,,0.00,12.0,meteohub,2013-06-24 02:30:00,
2013-06-23 19:35:00,63.1,57.6,29.96,SW,231,3.0,9.0,82,0.00,,,0.00,14.0,meteohub,2013-06-24 02:35:00,
2013-06-23 19:40:00,62.8,57.6,29.96,West,268,3.0,9.0,83,0.00,,,0.00,11.0,meteohub,2013-06-24 02:40:00,
2013-06-23 19:45:00,62.6,57.4,29.96,WSW,257,3.0,9.0,83,0.00,,,0.00,11.0,meteohub,2013-06-24 02:45:00,
2013-06-23 19:50:00,62.4,57.6,29.96,West,273,4.0,9.0,84,0.00,,,0.00,14.0,meteohub,2013-06-24 02:50:00,
2013-06-23 19:55:00,62.2,57.4,29.96,SW,236,2.0,9.0,84,0.00,,,0.00,12.0,meteohub,2013-06-24 02:55:00,
2013-06-23 20:00:00,62.2,57.7,29.96,WSW,244,6.0,9.0,85,0.00,,,0.00,12.0,meteohub,2013-06-24 03:00:00,
2013-06-23 20:05:00,62.1,57.6,29.96,SSW,209,4.0,8.0,85,0.00,,,0.00,11.0,meteohub,2013-06-24 03:05:00,
2013-06-23 20:10:00,62.1,57.6,29.96,WSW,244,5.0,7.0,85,0.00,,,0.00,9.0,meteohub,2013-06-24 03:10:00,
2013-06-23 20:15:00,61.9,57.4,29.95,WSW,254,4.0,7.0,85,0.00,,,0.00,9.0,meteohub,2013-06-24 03:15:00,
2013-06-23 20:21:00,61.7,57.4,29.95,West,275,5.0,7.0,86,0.00,,,0.00,9.0,meteohub,2013-06-24 03:21:00,
2013-06-23 20:26:00,61.5,57.4,29.95,WSW,254,6.0,10.0,86,0.00,,,0.00,0.0,meteohub,2013-06-24 03:26:00,
2013-06-23 20:31:00,61.5,57.4,29.95,West,271,2.0,10.0,86,0.00,,,0.00,0.0,meteohub,2013-06-24 03:31:00,
2013-06-23 20:36:00,61.5,57.4,29.95,West,266,3.0,10.0,86,0.00,,,0.00,0.0,meteohub,2013-06-24 03:36:00,
2013-06-23 20:41:00,61.5,57.4,29.94,WSW,252,3.0,9.0,86,0.00,,,0.00,0.0,meteohub,2013-06-24 03:41:00,
2013-06-23 20:46:00,61.5,57.4,29.95,WSW,240,3.0,9.0,86,0.00,,,0.00,0.0,meteohub,2013-06-24 03:46:00,
2013-06-23 20:51:00,61.3,57.4,29.94,WSW,245,5.0,7.0,87,0.00,,,0.00,0.0,meteohub,2013-06-24 03:51:00,
2013-06-23 20:56:00,61.3,57.4,29.94,WSW,244,5.0,8.0,87,0.00,,,0.00,0.0,meteohub,2013-06-24 03:56:00,
2013-06-23 21:01:00,61.3,57.4,29.95,West,269,2.0,8.0,87,0.00,,,0.00,0.0,meteohub,2013-06-24 04:01:00,
2013-06-23 21:02:00,61.3,57.4,29.95,WSW,256,3.0,8.0,87,0.00,,,0.00,0.0,meteohub,2013-06-24 04:02:00,
2013-06-23 21:03:00,61.3,57.4,29.95,WSW,250,5.0,8.0,87,0.00,,,0.00,0.0,meteohub,2013-06-24 04:03:00,
2013-06-23 21:04:00,61.3,57.4,29.95,West,260,3.0,8.0,87,0.00,,,0.00,0.0,meteohub,2013-06-24 04:04:00,
2013-06-23 21:09:00,61.3,57.4,29.95,WSW,247,5.0,8.0,87,0.00,,,0.00,0.0,meteohub,2013-06-24 04:09:00,
2013-06-23 21:14:00,61.3,57.4,29.95,WSW,252,3.0,9.0,87,0.00,,,0.00,0.0,meteohub,2013-06-24 04:14:00,
2013-06-23 21:19:00,61.3,57.4,29.95,WSW,252,0.0,9.0,87,0.00,,,0.00,0.0,meteohub,2013-06-24 04:19:00,
2013-06-23 21:24:00,61.3,57.4,29.95,SW,233,5.0,8.0,87,0.00,,,0.00,0.0,meteohub,2013-06-24 04:24:00,
2013-06-23 21:30:00,61.3,57.4,29.95,SW,223,1.0,8.0,87,0.00,,,0.00,0.0,meteohub,2013-06-24 04:30:00,
2013-06-23 21:35:00,61.5,57.6,29.95,SW,225,2.0,8.0,87,0.00,,,0.00,0.0,meteohub,2013-06-24 04:35:00,
2013-06-23 21:40:00,61.5,57.6,29.96,West,261,6.0,6.0,87,0.00,,,0.00,0.0,meteohub,2013-06-24 04:40:00,
2013-06-23 21:45:00,61.5,57.6,29.96,West,261,4.0,7.0,87,0.00,,,0.00,0.0,meteohub,2013-06-24 04:45:00,
2013-06-23 21:50:00,61.5,57.6,29.96,SW,222,3.0,9.0,87,0.00,,,0.00,0.0,meteohub,2013-06-24 04:50:00,
2013-06-23 21:55:00,61.5,57.6,29.96,WSW,250,0.0,9.0,87,0.00,,,0.00,0.0,meteohub,2013-06-24 04:55:00,
2013-06-23 22:00:00,61.5,57.6,29.96,SW,219,2.0,4.0,87,0.00,,,0.00,0.0,meteohub,2013-06-24 05:00:00,
2013-06-23 22:05:00,61.5,57.6,29.96,WSW,252,1.0,5.0,87,0.00,,,0.00,0.0,meteohub,2013-06-24 05:05:00,
2013-06-23 22:10:00,61.5,57.6,29.96,West,275,3.0,5.0,87,0.00,,,0.00,0.0,meteohub,2013-06-24 05:10:00,
2013-06-23 22:15:00,61.5,57.6,29.96,SW,223,1.0,5.0,87,0.00,,,0.00,0.0,meteohub,2013-06-24 05:15:00,
2013-06-23 22:20:00,61.5,57.6,29.96,SW,235,2.0,7.0,87,0.00,,,0.00,0.0,meteohub,2013-06-24 05:20:00,
2013-06-23 22:26:00,61.3,57.4,29.96,WSW,254,4.0,7.0,87,0.00,,,0.00,0.0,meteohub,2013-06-24 05:26:00,
2013-06-23 22:31:00,61.3,57.4,29.96,WSW,254,3.0,7.0,87,0.00,,,0.00,0.0,meteohub,2013-06-24 05:31:00,
2013-06-23 22:36:00,61.2,57.2,29.96,WSW,254,4.0,8.0,87,0.00,,,0.00,0.0,meteohub,2013-06-24 05:36:00,
2013-06-23 22:41:00,61.2,57.2,29.96,SW,226,6.0,8.0,87,0.00,,,0.00,0.0,meteohub,2013-06-24 05:41:00,
2013-06-23 22:47:00,61.0,57.0,29.96,WSW,250,2.0,8.0,87,0.00,,,0.00,0.0,meteohub,2013-06-24 05:47:00,
2013-06-23 22:52:00,61.0,57.0,29.96,WSW,237,6.0,8.0,87,0.00,,,0.00,0.0,meteohub,2013-06-24 05:52:00,
2013-06-23 22:57:00,60.8,56.8,29.96,WSW,256,4.0,9.0,87,0.00,,,0.00,0.0,meteohub,2013-06-24 05:57:00,
2013-06-23 23:02:00,60.6,57.0,29.96,West,259,4.0,9.0,88,0.00,,,0.00,0.0,meteohub,2013-06-24 06:02:00,
2013-06-23 23:07:00,60.6,57.0,29.96,SW,236,3.0,9.0,88,0.00,,,0.00,0.0,meteohub,2013-06-24 06:07:00,
2013-06-23 23:12:00,60.4,56.8,29.95,West,273,2.0,11.0,88,0.00,,,0.00,0.0,meteohub,2013-06-24 06:12:00,
2013-06-23 23:17:00,60.4,56.8,29.95,WNW,290,2.0,11.0,88,0.00,,,0.00,0.0,meteohub,2013-06-24 06:17:00,
2013-06-23 23:23:00,60.3,56.7,29.95,SW,230,0.0,11.0,88,0.00,,,0.00,0.0,meteohub,2013-06-24 06:23:00,
2013-06-23 23:28:00,60.3,56.7,29.95,SW,226,9.0,9.0,88,0.00,,,0.00,0.0,meteohub,2013-06-24 06:28:00,
2013-06-23 23:33:00,60.3,56.7,29.95,West,263,2.0,9.0,88,0.00,,,0.00,0.0,meteohub,2013-06-24 06:33:00,
2013-06-23 23:39:00,60.3,56.7,29.95,WNW,282,2.0,9.0,88,0.00,,,0.00,0.0,meteohub,2013-06-24 06:39:00,
2013-06-23 23:44:00,60.3,56.7,29.95,WSW,241,6.0,9.0,88,0.00,,,0.00,0.0,meteohub,2013-06-24 06:44:00,
2013-06-23 23:49:00,60.1,56.5,29.95,WSW,242,5.0,8.0,88,0.00,,,0.00,0.0,meteohub,2013-06-24 06:49:00,
2013-06-23 23:54:00,60.1,56.8,29.95,WSW,240,4.0,9.0,89,0.00,,,0.00,0.0,meteohub,2013-06-24 06:54:00,